Winter Haven, FL

9:56 PM EDT on July 22, 2018 (GMT -0400)
Winter Haven's-Gilbert

Weather History for KGIF - July, 2018

Change the Weather History Date:

Thursday, July 12, 2018

  Actual Average Record
Temperature  
Mean Temperature 85 °F -  
Max Temperature 96 °F 92 °F 99 °F (2016)
Min Temperature 75 °F 71 °F 67 °F (1986)
Cooling Degree Days 20    
Growing Degree Days 35 (Base 50)    
Moisture  
Dew Point 72 °F    
Average Humidity 70    
Maximum Humidity 94    
Minimum Humidity 40    
Precipitation  
Precipitation 0.00 in - - ()
Sea Level Pressure  
Sea Level Pressure 30.08 in    
Wind  
Wind Speed 4 mph (SE)    
Max Wind Speed 8 mph    
Max Gust Speed -    
Visibility 10 miles    
Events      
Averages and records for this station are not official NWS values.
T = Trace of Precipitation, MM = Missing Value Source: NWS Daily Summary

Daily Weather History Graph

Daily Weather History Graph

Search for Another Location

Airport or City:

Astronomy

Jul. 12, 2018 Rise Set
Actual Time 6:38 AM EDT 8:26 PM EDT
Civil Twilight 6:12 AM EDT 8:52 PM EDT
Nautical Twilight 5:40 AM EDT 9:24 PM EDT
Astronomical Twilight 5:07 AM EDT 9:57 PM EDT
Moon 6:03 AM EDT (7/12) 8:10 PM EDT (7/12)
Length of Visible Light 14h 40m
Length of Day
13h 47m
Waning Crescent, 0% of the Moon is Illuminated
Jul 12
Waning Crescent
Jul 12
New
Jul 19
First Quarter
Jul 27
Full
Aug 4
Last Quarter

Hourly Weather History & Observations

Time (EDT) Temp. Heat Index Dew Point Humidity Pressure Visibility Wind Dir Wind Speed Gust Speed Precip Events Conditions
12:53 AM 78.1 °F - 73.9 °F 87% 30.06 in 10.0 mi SE 5.8 mph - N/A   Clear
1:53 AM 78.1 °F - 73.9 °F 87% 30.05 in 10.0 mi ESE 4.6 mph - N/A   Clear
2:53 AM 77.0 °F - 73.9 °F 90% 30.05 in 10.0 mi Calm Calm - N/A   Clear
3:53 AM 77.0 °F - 73.9 °F 90% 30.03 in 10.0 mi Calm Calm - N/A   Clear
4:53 AM 77.0 °F - 73.9 °F 90% 30.04 in 10.0 mi Calm Calm - N/A   Clear
5:53 AM 75.9 °F - 73.9 °F 94% 30.04 in 10.0 mi Calm Calm - N/A   Clear
6:53 AM 77.0 °F - 73.9 °F 90% 30.06 in 10.0 mi SSE 3.5 mph - N/A   Clear
7:53 AM 81.0 °F 86.2 °F 73.9 °F 79% 30.07 in 10.0 mi Calm Calm - N/A   Clear
8:53 AM 82.0 °F 87.9 °F 73.9 °F 76% 30.09 in 10.0 mi SW 3.5 mph - N/A   Clear
9:53 AM 84.9 °F 92.1 °F 73.9 °F 69% 30.10 in 10.0 mi West 3.5 mph - N/A   Clear
10:53 AM 88.0 °F 95.6 °F 73.0 °F 61% 30.12 in 10.0 mi SSE 3.5 mph - N/A   Clear
11:53 AM 91.9 °F 97.4 °F 70.0 °F 48% 30.12 in 10.0 mi Variable 3.5 mph - N/A   Clear
12:53 PM 91.9 °F 95.4 °F 66.9 °F 44% 30.11 in 10.0 mi East 5.8 mph - N/A   Clear
1:53 PM 95.0 °F 100.7 °F 69.1 °F 43% 30.10 in 10.0 mi NNE 6.9 mph - N/A   Partly Cloudy
2:53 PM 93.0 °F 97.4 °F 68.0 °F 44% 30.09 in 10.0 mi North - - N/A   Mostly Cloudy
3:53 PM 93.9 °F 97.0 °F 66.0 °F 40% 30.08 in 10.0 mi ESE 4.6 mph - N/A   Clear
4:53 PM 91.9 °F 94.5 °F 66.0 °F 42% 30.07 in 10.0 mi SSW 4.6 mph - N/A   Scattered Clouds
5:53 PM 84.9 °F 90.1 °F 71.1 °F 63% 30.07 in 10.0 mi WSW 8.1 mph - N/A   Partly Cloudy
6:53 PM 82.9 °F 87.5 °F 71.1 °F 67% 30.09 in 10.0 mi NNW 8.1 mph - N/A   Partly Cloudy
7:53 PM 81.0 °F 84.9 °F 71.1 °F 72% 30.09 in 10.0 mi NNW 4.6 mph - N/A   Clear
8:53 PM 81.0 °F 85.2 °F 72.0 °F 74% 30.12 in 10.0 mi ESE 6.9 mph - N/A   Scattered Clouds
9:53 PM 81.0 °F 85.2 °F 72.0 °F 74% 30.12 in 10.0 mi ENE 3.5 mph - N/A   Clear
10:53 PM 81.0 °F 85.8 °F 73.0 °F 77% 30.14 in 10.0 mi Calm Calm - N/A   Clear
11:53 PM 80.1 °F 84.2 °F 73.0 °F 79% 30.13 in 10.0 mi Calm Calm - N/A   Clear